This is the latest recevied weather packets stored in our database for station/object HB9HFD-13. If no packets are shown the sender has not sent any weather packets the latest 10 day(s).
| Time | Temp. | Humidity | Pressure | Rain* | Wind** | Luminosity | Snow |
|---|---|---|---|---|---|---|---|
| 1777630174 | 17.22° C | 39% | 1022.7 hPa | 0 mm | - | - | - |
| 1777629874 | 17.22° C | 39% | 1022.7 hPa | 0 mm | - | - | - |
| 1777629573 | 17.22° C | 37% | 1022.8 hPa | 0 mm | - | - | - |
| 1777629273 | 17.22° C | 39% | 1022.9 hPa | 0 mm | - | - | - |
| 1777628973 | 17.78° C | 38% | 1022.9 hPa | 0 mm | - | - | - |
| 1777628673 | 17.22° C | 41% | 1022.9 hPa | 0 mm | - | - | - |
| 1777628372 | 17.22° C | 41% | 1022.9 hPa | 0 mm | - | - | - |
| 1777628072 | 16.67° C | 40% | 1022.9 hPa | 0 mm | - | - | - |
| 1777627772 | 16.67° C | 42% | 1022.9 hPa | 0 mm | - | - | - |
| 1777627472 | 16.11° C | 43% | 1022.9 hPa | 0 mm | - | - | - |
| 1777627171 | 16.11° C | 42% | 1023 hPa | 0 mm | - | - | - |
| 1777626871 | 15.56° C | 44% | 1023 hPa | 0 mm | - | - | - |
| 1777626571 | 15.56° C | 41% | 1023 hPa | 0 mm | - | - | - |
| 1777626271 | 15° C | 44% | 1022.9 hPa | 0 mm | - | - | - |
| 1777625970 | 15° C | 45% | 1022.9 hPa | 0 mm | - | - | - |
| 1777625670 | 15° C | 42% | 1022.9 hPa | 0 mm | - | - | - |
| 1777625370 | 15° C | 43% | 1022.9 hPa | 0 mm | - | - | - |
| 1777625070 | 15° C | 43% | 1022.8 hPa | 0 mm | - | - | - |
| 1777624769 | 15° C | 43% | 1022.8 hPa | 0 mm | - | - | - |
| 1777624469 | 15° C | 46% | 1022.9 hPa | 0 mm | - | - | - |
| 1777624169 | 14.44° C | 45% | 1022.9 hPa | 0 mm | - | - | - |
| 1777623869 | 14.44° C | 44% | 1022.9 hPa | 0 mm | - | - | - |
| 1777623568 | 14.44° C | 46% | 1022.9 hPa | 0 mm | - | - | - |
| 1777623268 | 13.89° C | 45% | 1022.9 hPa | 0 mm | - | - | - |
| 1777622968 | 13.89° C | 44% | 1022.9 hPa | 0 mm | - | - | - |
* Rain latest hour (hover to see other rain measurements)
** Current wind speed in m/s (hover to see current wind gust speed)